This is the latest recevied weather packets stored in our database for station/object YT6PT-8. If no packets are shown the sender has not sent any weather packets the latest 10 day(s).
| Time | Temp. | Humidity | Pressure | Rain* | Wind** | Luminosity | Snow |
|---|---|---|---|---|---|---|---|
| 1788022839 | 18.33° C | 88% | 1009 hPa | 0.76 mm | 1.34 m/s, 158° | - | - |
| 1788022531 | 18.33° C | 88% | 1009 hPa | 0.76 mm | 1.34 m/s, 158° | - | - |
| 1788022234 | 18.33° C | 91% | 1009.5 hPa | 0.51 mm | 0.89 m/s, 0° | - | - |
| 1788021932 | 18.33° C | 91% | 1009.5 hPa | 0.51 mm | 0.89 m/s, 0° | - | - |
| 1788021634 | 18.33° C | 91% | 1009.5 hPa | 0.51 mm | 0.89 m/s, 0° | - | - |
| 1788021332 | 18.33° C | 91% | 1009.5 hPa | 0.51 mm | 0.89 m/s, 0° | - | - |
| 1788021034 | 18.33° C | 91% | 1009.5 hPa | 0.51 mm | 0.89 m/s, 0° | - | - |
| 1788020732 | 18.33° C | 91% | 1009.5 hPa | 0.51 mm | 0.89 m/s, 0° | - | - |
| 1788020433 | 18.33° C | 90% | 1009.5 hPa | 0.51 mm | 0 m/s | - | - |
| 1788020133 | 18.33° C | 90% | 1009.5 hPa | 0.51 mm | 0 m/s | - | - |
| 1788019851 | 18.33° C | 90% | 1009.4 hPa | 0 mm | 0 m/s | - | - |
| 1788019553 | 18.33° C | 90% | 1009.4 hPa | 0 mm | 0 m/s | - | - |
| 1788019239 | 18.33° C | 90% | 1009.2 hPa | 0 mm | 0 m/s | - | - |
| 1788018933 | 18.33° C | 90% | 1009.2 hPa | 0 mm | 0 m/s | - | - |
| 1788018633 | 18.33° C | 92% | 1009.2 hPa | 0 mm | 0.45 m/s, 338° | - | - |
| 1788018334 | 18.33° C | 93% | 1009.4 hPa | 0 mm | 1.79 m/s, 338° | - | - |
| 1788018033 | 18.33° C | 93% | 1009.4 hPa | 0 mm | 1.79 m/s, 338° | - | - |
| 1788017734 | 18.33° C | 93% | 1009.4 hPa | 0 mm | 1.79 m/s, 338° | - | - |
| 1788017432 | 18.33° C | 93% | 1009.1 hPa | 0 mm | 3.58 m/s, 338° | - | - |
| 1788017133 | 18.33° C | 93% | 1009.1 hPa | 0 mm | 3.58 m/s, 338° | - | - |
| 1788016832 | 18.33° C | 91% | 1009.5 hPa | 0 mm | 3.13 m/s, 315° | - | - |
| 1788016532 | 18.33° C | 91% | 1009.5 hPa | 0 mm | 3.13 m/s, 315° | - | - |
| 1788016233 | 18.33° C | 93% | 1009.5 hPa | 0 mm | 3.13 m/s, 338° | - | - |
| 1788015952 | 18.33° C | 93% | 1009.5 hPa | 0 mm | 3.13 m/s, 338° | - | - |
| 1788015654 | 18.33° C | 94% | 1009 hPa | 1.52 mm | 4.47 m/s, 338° | - | - |
* Rain latest hour (hover to see other rain measurements)
** Current wind speed in m/s (hover to see current wind gust speed)